Location: Bletchingley
(51.2333°N, 0.1000°W)
Time: 05:03:43
(UTC+00:00)

NOSS 3-4 (A) - Pass Details

Date: 18 September 2020
Orbit: 886 x 1326 km, 63.4° (Epoch: 19 October)

Event Time Altitude Azimuth Distance (km) Brightness Sun altitude
Exits shadow 22:41:30 48° 9° (N) 1,249 4.2 -35.1°
Drops below altitude 10° 22:46:35 10° 43° (NE) 2,819 6.1 -35.4°
Sets 22:49:23 0° 47° (NE) 3,841 6.9 -35.6°
